Photometre #846[NE_1.6_Dp] Lerwick_MO AOT

File : 20220919_846.hum

19/09/2022,06:52:51,TEMP=7.9,BA=5.68,STAT.A,ExtBa=12.50
19/09/2022,07:06:27,TEMP=8.2,BA=5.64,STAT.A,ExtBa=12.40
19/09/2022,07:20:07,TEMP=8.3,BA=5.64,STAT.A,ExtBa=12.40
19/09/2022,07:38:00,TEMP=8.4,BA=5.64,STAT.A,ExtBa=12.40
19/09/2022,07:51:35,TEMP=8.8,BA=5.64,STAT.A,ExtBa=12.40
19/09/2022,08:05:13,TEMP=9.2,BA=5.64,STAT.A,ExtBa=12.40
19/09/2022,08:18:48,TEMP=9.7,BA=5.64,STAT.B,ExtBa=12.40
19/09/2022,08:20:47,TEMP=10.2,BA=5.64,STAT.A,ExtBa=12.30
19/09/2022,08:34:23,TEMP=10.1,BA=5.64,STAT.A,ExtBa=12.40
19/09/2022,08:47:59,TEMP=11.0,BA=5.64,STAT.A,ExtBa=12.40
19/09/2022,09:01:38,TEMP=11.9,BA=5.60,STAT.A,ExtBa=12.40
19/09/2022,09:15:27,TEMP=12.7,BA=5.60,STAT.C,ExtBa=12.40
19/09/2022,09:17:31,TEMP=13.0,BA=5.60,STAT.A,ExtBa=12.30
19/09/2022,09:31:11,TEMP=12.8,BA=5.60,STAT.F,ExtBa=12.40
19/09/2022,09:55:50,TEMP=14.2,BA=5.56,STAT.D,ExtBa=12.20
19/09/2022,10:13:40,TEMP=13.0,BA=5.56,STAT.D,ExtBa=12.30
19/09/2022,10:27:28,TEMP=12.7,BA=5.56,STAT.D,ExtBa=12.30
19/09/2022,10:41:05,TEMP=12.0,BA=5.56,STAT.F,ExtBa=12.30
19/09/2022,10:54:50,TEMP=12.7,BA=5.56,STAT.D,ExtBa=12.30
19/09/2022,11:08:26,TEMP=13.1,BA=5.56,STAT.D,ExtBa=12.30
19/09/2022,11:22:00,TEMP=13.2,BA=5.56,STAT.D,ExtBa=12.30
19/09/2022,11:35:36,TEMP=12.8,BA=5.56,STAT.F,ExtBa=12.30
19/09/2022,12:02:23,TEMP=14.4,BA=5.56,STAT.D,ExtBa=12.20
19/09/2022,12:15:56,TEMP=14.8,BA=5.56,STAT.D,ExtBa=12.30
19/09/2022,12:29:31,TEMP=13.4,BA=5.56,STAT.D,ExtBa=12.30
19/09/2022,12:43:17,TEMP=12.2,BA=5.56,STAT.F,ExtBa=12.30
19/09/2022,13:09:50,TEMP=13.8,BA=5.52,STAT.D,ExtBa=12.20
19/09/2022,13:23:27,TEMP=13.5,BA=5.52,STAT.D,ExtBa=12.30
19/09/2022,13:37:03,TEMP=12.9,BA=5.52,STAT.D,ExtBa=12.30
19/09/2022,13:50:35,TEMP=12.5,BA=5.52,STAT.F,ExtBa=12.30
19/09/2022,13:52:26,TEMP=12.9,BA=5.52,STAT.D,ExtBa=12.30
19/09/2022,14:06:52,TEMP=12.0,BA=5.52,STAT.D,ExtBa=12.30
19/09/2022,14:08:58,TEMP=12.3,BA=5.52,STAT.D,ExtBa=12.30
19/09/2022,14:11:20,TEMP=12.4,BA=5.52,STAT.F,ExtBa=12.30
19/09/2022,14:14:20,TEMP=12.2,BA=5.52,STAT.D,ExtBa=12.30
19/09/2022,14:29:20,TEMP=11.7,BA=5.60,STAT.D,ExtBa=12.30
19/09/2022,14:44:20,TEMP=11.5,BA=5.64,STAT.D,ExtBa=12.30
19/09/2022,14:59:21,TEMP=13.4,BA=5.64,STAT.F,ExtBa=12.30
19/09/2022,15:13:35,TEMP=13.4,BA=5.64,STAT.A,ExtBa=12.30
19/09/2022,15:27:50,TEMP=13.0,BA=5.64,STAT.C,ExtBa=12.30
19/09/2022,15:39:45,TEMP=12.6,BA=5.64,STAT.A,ExtBa=12.30
19/09/2022,15:49:55,TEMP=12.4,BA=5.56,STAT.A,ExtBa=12.30
19/09/2022,15:58:43,TEMP=12.1,BA=5.56,STAT.A,ExtBa=12.30
19/09/2022,16:06:27,TEMP=12.0,BA=5.56,STAT.A,ExtBa=12.30
19/09/2022,16:13:15,TEMP=11.8,BA=5.64,STAT.B,ExtBa=12.30
19/09/2022,16:27:20,TEMP=11.5,BA=5.56,STAT.A,ExtBa=12.30
19/09/2022,16:38:21,TEMP=11.3,BA=5.60,STAT.A,ExtBa=12.30
19/09/2022,16:47:13,TEMP=11.3,BA=5.56,STAT.A,ExtBa=12.30
19/09/2022,16:54:31,TEMP=11.3,BA=5.52,STAT.A,ExtBa=12.30
19/09/2022,17:00:38,TEMP=11.5,BA=5.64,STAT.A,ExtBa=12.30
19/09/2022,17:05:51,TEMP=11.7,BA=5.64,STAT.A,ExtBa=12.30